www.pogodaiklimat.ru
ПОГОДА в Астаре

Архив погоды в Астаре (Азербайджан)

Время
(UTC), дата
15 11.05
18 11.05
21 11.05
00 12.05
03 12.05
06 12.05
09 12.05
12 12.05
15 12.05
18 12.05
21 12.05
00 13.05
03 13.05
06 13.05
09 13.05
12 13.05
15 13.05
18 13.05
21 13.05
00 14.05
03 14.05
06 14.05
09 14.05
12 14.05
15 14.05
18 14.05
21 14.05
00 15.05
03 15.05
06 15.05
09 15.05
12 15.05
15 15.05
18 15.05
21 15.05
00 16.05
03 16.05
06 16.05
09 16.05
12 16.05
15 16.05
18 16.05
21 16.05
00 17.05
03 17.05
06 17.05
09 17.05
12 17.05
15 17.05
18 17.05
21 17.05
Ветер
(напр.,м/с)
Видим. Явления Облачность Т
(С)
Тd
(С)
f
(%)
Тe
(С)
Тes
(С)
Комфортность P
(гПа)
Po
(гПа)
Тmin
(С)
Tmax
(С)
R
(мм)
R24
(мм)
S
(см)
Ю 2 20 км 8/0
[As op]
+20.2 +16.9 81 +24 +24 комфорт 1013.0 1015.6
Ю 2 4000 м 10/0
[As op]
+19.2 +17.3 89 +22 +22 комфорт 1011.6 1014.2
В 2 4000 м 10/10 600 м
[Sc]
+18.6 +17.6 94 +20 +20 1008.9 1011.5
С 2 4000 м 10/0
[As op]
+18.4 +17.4 94 +20 +20 1007.2 1009.8
Ю 2 50 км {ливн. дождь} 8/8 600 м
[Sc]
+18.6 +17.6 94 +20 +20 1007.5 1010.1
СВ 2 50 км 6/6 600 м
[Cu hum Ac trans]
+22.9 +19.0 79 +29 +34 очень душно 1006.9 1009.4 +16.8 0.0
В 2 50 км 1/1 600 м
[Cu hum]
+23.6 +18.2 72 +28 +46 душно 1004.8 1007.3
В 2 20 км 8/8 600 м
[Cb cap]
+22.8 +18.2 75 +28 +30 душно 1003.4 1005.9
Ю 2 20 км 9/9 600 м
[Cb cap]
+21.6 +17.9 79 +26 +26 душно 1004.0 1006.6
С 4 4000 м 10/10 600 м
[Sc]
+19.8 +16.4 81 +22 +22 комфорт 1006.7 1009.3
С 2 4000 м 1/1 600 м
[Cu hum]
+17.8 +13.9 78 +18 +18 1007.5 1010.1
З 2 4000 м ясно +16.6 +13.9 84 +17 +17 1009.0 1011.6
штиль 0 20 км 6/6 600 м
[Sc]
+17.1 +13.5 79 +17 +18 1010.5 1013.1
Ю 2 20 км 8/8 600 м
[Cu hum As op]
+22.4 +13.4 57 +25 +28 комфорт 1010.6 1013.2 +16.1
Ю 2 20 км 10/10 600 м
[Sc]
+20.2 +15.1 72 +23 +23 комфорт 1010.6 1013.2
ЮВ 4 10 км 10/10 600 м
[Sc]
+19.6 +15.2 76 +22 +22 комфорт 1009.8 1012.4
В 6 10 км слаб. ливневой дождь 10/10 600 м
[Cb cap]
+17.7 +15.9 89 +17 +17 1009.7 1012.3
В 2 4000 м слаб. ливневой дождь 10/10 600 м
[Cb cap]
+17.6 +17.1 97 +18 +18 1010.0 1012.6 0.7
В 2 4000 м {ливн. дождь} 10/10 600 м
[Cb cap]
+17.4 +16.7 96 +18 +18 1010.1 1012.7
С 4 4000 м ливневой дождь 10/10 600 м
[Cb cap]
+13.3 +12.9 97 +11 +11 1011.5 1014.1
СЗ 2 10 км слаб. ливневой дождь 10/10 600 м
[Cb cap]
+13.4 +13.0 97 +13 +13 1012.2 1014.8
С 2 10 км слаб. дождь {ливн. дождь} 10/10 300 м
[Frnb Ns]
+14.6 +14.2 97 +14 +14 1012.2 1014.8 +13.1 24
СВ 2 10 км слаб. дождь 10/10 300 м
[Frnb Ns]
+15.6 +14.9 96 +15 +15 1011.8 1014.4
СВ 2 10 км в посл. час дождь 10/10 300 м
[Frnb Ns]
+16.3 +15.4 94 +16 +16 1011.9 1014.5
С 2 4000 м дождь 10/10 600 м
[Frnb Ns]
+15.8 +15.1 96 +16 +16 1013.8 1016.4
СЗ 2 4000 м гроза, ливневой дождь 10/10 600 м
[Cb cap]
+14.6 +14.2 97 +14 +14 1015.0 1017.6 6
С 2 4000 м слаб. ливневой дождь {гроза} 10/10 600 м
[Cb cap]
+14.8 +14.3 97 +14 +14 1016.2 1018.8
С 2 4000 м слаб. ливневой дождь {гроза} 10/10 600 м
[Cb cap]
+13.8 +13.4 97 +13 +13 1016.8 1019.4
З 2 10 км {ливн. дождь} 10/10 600 м
[Sc]
+14.0 +13.6 97 +13 +13 1018.3 1020.9
СВ 2 20 км 10/10 600 м
[Sc]
+16.1 +13.8 86 +16 +16 1019.0 1021.6 +13.3 7
В 2 20 км 10/10 600 м
[Sc]
+18.3 +13.1 72 +19 +19 1018.8 1021.4
Ю 2 10 км слаб. дождь 10/10 300 м
[Frnb Ns]
+16.4 +15.1 92 +16 +16 1018.5 1021.1
ЮЗ 2 10 км {дождь} 10/10 600 м
[Sc]
+16.6 +15.4 93 +17 +17 1018.9 1021.5
штиль 0 4000 м 10/10 600 м
[Sc]
+15.8 +15.0 95 +16 +16 1020.0 1022.6 2
штиль 0 4000 м {дождь} 10/10 600 м
[Sc]
+15.9 +15.2 96 +16 +16 1019.4 1022.0
В 2 4000 м слаб. дождь 10/10 300 м
[Frnb Ns]
+15.6 +15.1 97 +15 +15 1019.2 1021.8
СВ 2 10 км слаб. дождь 10/10 300 м
[Frnb Ns]
+15.3 +15.0 98 +15 +15 1021.1 1023.7
В 2 10 км {дождь} 10/10 600 м
[Sc]
+16.6 +14.5 87 +17 +17 1020.7 1023.3 +14.9 7
В 2 10 км 10/10 600 м
[Sc]
+16.6 +14.3 86 +17 +17 1020.1 1022.7
ЮВ 2 10 км в посл. час дождь 10/10 600 м
[Sc]
+16.5 +14.8 90 +17 +17 1019.1 1021.7
Ю 2 10 км {дождь} 10/10 600 м
[Sc]
+16.6 +15.2 91 +17 +17 1018.8 1021.4
штиль 0 4000 м слаб. дождь 10/10 600 м
[Sc]
+16.2 +15.7 97 +16 +16 1017.8 1020.4 1
штиль 0 4000 м слаб. ливневой дождь 10/10 600 м
[Cb cap]
+16.1 +15.8 98 +16 +16 1016.4 1019.0
СЗ 2 4000 м ливневой дождь 10/10 600 м
[Cb cap]
+15.8 +15.5 98 +16 +16 1016.6 1019.2
З 2 10 км слаб. дождь {ливн. дождь} 10/10 300 м
[Frnb Ns]
+14.8 +14.4 97 +14 +14 1017.2 1019.8
С 2 10 км слаб. дождь {ливн. дождь} 10/10 300 м
[Frnb Ns]
+15.8 +15.5 98 +16 +16 1016.1 1018.7 +14.6 13
СВ 4 10 км слаб. ливневой дождь {гроза} 10/10 600 м
[Cb cap]
+15.8 +15.1 96 +15 +15 1017.2 1019.8
С 4 10 км {гроза, ливн. дождь} 10/10 600 м
[Cb cap]
+14.3 +13.2 93 +13 +13 1018.6 1021.2
штиль 0 10 км {ливн. дождь} 10/10 600 м
[Cb cap]
+15.0 +13.4 90 +15 +15 1018.4 1021.0
З 2 4000 м слаб. дождь {ливн. дождь} 10/10 300 м
[Frnb Ns]
+14.0 +13.2 95 +13 +13 1019.3 1021.9 17
Ю 2 4000 м дождь 10/10 300 м
[Frnb Ns]
+13.8 +13.4 97 +13 +13 1018.6 1021.2
Местоположение метеостанции Астара (Азербайджан): широта 38.45 долгота 48.88 высота над уровнем моря -22 м.
В архиве по умолчанию представлена погода в Астаре за последнюю неделю. Архивные данные за месяц целиком и за предыдущие месяцы, начиная с января 2011 года, Вы можете получить, выбрав интересующий диапазон дат из раскрывающегося списка и нажав кнопку "Найти!".
*Определитесь, кто Вы:
Внимание! Время в таблицах - всемирное. Для получения местного времени необходимо прибавить поправку, которая равна 4 ч.
Некоторые строки с данными для отдельных станций могут быть выделены курсивом. Это означает, что фактические данные отсутствуют по различным причинам, а приведенные значения являются расчетными модельными данными для данного пункта наблюдений.
Смотрите также архив погоды в соседних городах и на ближайших метеорологических станциях:
Партнеры нашего сайта:      
Пояснения к столбцам:
  • Ветер - указаны скорость ветра в м/с - средняя за 10 мин, порывы в срок и между сроками (в фигурных скобках) и направление, откуда дует ветер: С - северный,
  • СВ - северо-восточный, В - восточный, ЮВ - юго-восточный, Ю - южный, ЮЗ - юго-западный, З - западный, СЗ - северо-западный.
  • Видимость - горизонтальная дальность видимости в метрах или километрах. При видимости от 1 до 10 км при отсутствии осадков обычно наблюдается дымка, при ухудшении видимости до 1 км и менее - туман. В сухую погоду видимость может ухудшаться дымом, пылью или мглою.
  • Явления - указаны атмосферные явления, наблюдавшиеся в срок или в последний час перед сроком; фигурными скобками обозначены явления, наблюдавшиеся между сроками (за 1-3 часа до срока); квадратными скобками обозначены град или гололедные отложения с указанием их диаметра в мм.
  • Облачность - указаны через наклонную черту общая и нижняя облачность в баллах и высота нижней границы облаков в метрах; квадратными скобками обозначены формы облаков: Ci - перистые, Cs - перисто-слоистые, Cc - перисто-кучевые, Ac - высококучевые, As - высокослоистые, Sc - слоисто-кучевые, Ns - слоисто-дождевые, Cu - кучевые, Cb - кучево-дождевые. Подробнее классификацию облаков см. в Атласе облаков (PDF).
  • T - Температура воздуха - температура, измеренная на высоте 2 м над землей.
  • Td - Температура точки росы - температура, при понижении до которой содержащийся в воздухе водяной пар достигнет насыщения.
  • f - Относительная влажность воздуха - влажноcть воздуха, измеренная на высоте 2 м над землей.
  • Te - Эффективная температура - температура, которую ощущает одетый по сезону человек в тени. Характеристика душности погоды. При расчете учитывается влияние влажности воздуха и скорости ветра на теплоощущения человека.
  • Tes - Эффективная температура на солнце - температура, которую ощущает человек, с поправкой на солнечный нагрев. Характеристика знойности погоды. Зависит от высоты солнца над горизонтом, облачности и скорости ветра. Ночью, в пасмурную погоду, а также при ветре 12 м/с и более поправка равна нулю.
  • P - Атмосферное давление - приведенное к уровню моря атмосферное давление.
  • Po - Атмосферное давление - измеренное на уровне метеостанции атмосферное давление.
  • Tmin - Минимальная температура - минимум температуры воздуха на высоте 2 м над землей.
  • Tmax - Максимальная температура - максимум температуры воздуха на высоте 2 м над землей.
  • R - Количество осадков - Количество выпавших осадков за период времени, мм. При наведении курсора мыши на число - период времени, за который выпало указанное количество осадков.
  • R24 - Количество осадков - Количество выпавших осадков за 24 часа, мм.
  • S - Снежный покров - Высота снежного покрова, см. При наведении курсора мыши на число - состояние снежного покрова и степень покрытия местности в баллах.